Tracking 27122 objects as of 24-Mar-2023
HD Live streaming from Space Station
objects crossing your sky now

STARLINK-5248

Track STARLINK-5248 now!
10-day predictions
STARLINK-5248 is classified as:


NORAD ID: 54174
Int'l Code: 2022-141T
Perigee: 355.4 km
Apogee: 358.2 km
Inclination: 53.2 °
Period: 91.5 minutes
Semi major axis: 6727 km
RCS: Unknown
Launch date: October 28, 2022
Source: United States (US)
Launch site: AIR FORCE WESTERN TEST RANGE (AFWTR)
Your satellite tracking list
Your tracking list is empty




NASA's NSSDC Master Catalog

Two Line Element Set (TLE):
1 54174U 22141T   23083.16929244  .00009000  00000-0  68353-4 0  9992
2 54174  53.2142 135.0414 0002115 139.7745 220.3432 15.73242658 23197
Source of the keplerian elements: AFSPC